Regional Weather Roundup
Issued by NWS Upton, NY

Current Version | Previous Version | Text Only | Print | Product List | Glossary Off
Versions: 1 2 3 4 5 6 7 8 9 10 11 12 13 14 15 16 17 18 19 20 21 22 23 24 25 26
000 ASUS41 KOKX 281804 RWROKX REGIONAL WEATHER ROUNDUP NATIONAL WEATHER SERVICE NEW YORK NY 200 PM EDT THU APR 28 2016 NOTE: "FAIR" INDICATES FEW OR NO CLOUDS BELOW 12,000 FEET WITH NO SIGNIFICANT WEATHER AND/OR OBSTRUCTIONS TO VISIBILITY. NYZ071-072-176-178-NJZ106-104-281900- NEW YORK CITY METRO AREA CITY SKY/WX TMP DP RH WIND PRES REMARKS CENTRAL PARK CLOUDY 56 31 38 VRB7 30.06F LAGUARDIA APRT CLOUDY 56 34 43 SE8 30.03F KENNEDY INTL CLOUDY 53 33 46 SE10 30.07S NEWARK/LIBERTY CLOUDY 55 34 45 SE9 30.04F BRNX BOT. GARD N/A 57 23 26 E13 30.02F TETERBORO CLOUDY 58 22 24 S7 30.02F $$ NYZ177-179-078>081-281900- LONG ISLAND NEW YORK CITY SKY/WX TMP DP RH WIND PRES REMARKS FARMINGDALE CLOUDY 52 35 52 SE13 30.05F ISLIP CLOUDY 52 35 52 SE13 30.05S SHIRLEY CLOUDY 50 33 52 SE14 30.06F RIVERHEAD N/A 54 36 50 SW3 30.05S WESTHAMPTON CLOUDY 47 32 56 SE10 30.07F EAST HAMPTON FAIR 49 32 50 S10 30.05F MONTAUK POINT N/A 50 30 46 VRB7 30.07F $$ NYZ052-065-067-281900- HUDSON VALLEY CITY SKY/WX TMP DP RH WIND PRES REMARKS WHITE PLAINS CLOUDY 54 24 31 SE6 30.02F NEWBURGH PTSUNNY 55 25 30 SE9 30.02F MONTGOMERY CLOUDY 58 25 28 VRB5 30.00F POUGHKEEPSIE PTSUNNY 59 20 22 VRB5 30.01F ALBANY CLOUDY 55 20 25 NE7 30.03F $$ NJZ001-105-106-008-010-013-015-019>022-104-281900- NEW JERSEY CITY SKY/WX TMP DP RH WIND PRES REMARKS NEWARK/LIBERTY CLOUDY 55 34 45 SE9 30.04F TETERBORO CLOUDY 58 22 24 S7 30.02F CALDWELL CLOUDY 58 25 28 SE8 30.03F MORRISTOWN CLOUDY 57 25 28 E7 30.03F SOMERVILLE CLOUDY 57 26 30 S6 30.01F SUSSEX PTSUNNY 57 24 28 CALM 30.02F ANDOVER N/A 58 25 28 CALM 30.01F TRENTON CLOUDY 55 26 32 E7 30.04R MILLVILLE LGT RAIN 48 40 73 NE9 30.05S ATLANTIC CITY LGT RAIN 49 43 80 VRB7 30.05R WRIGHTSTOWN CLOUDY 52 31 43 SE9 30.04R TOMS RIVER CLOUDY 52 34 50 SE8 30.07R BELMAR PTSUNNY 51 31 46 E10 30.06F $$ PAZ047>061-062-071-281900- EASTERN PENNSYLVANIA CITY SKY/WX TMP DP RH WIND PRES REMARKS PHILADELPHIA LGT RAIN 50 39 66 SE8 30.05S ALLENTOWN CLOUDY 57 25 29 SE7 30.03R SCRANTON CLOUDY 56 20 24 N9 29.99F $$ CTZ002-004>006-009-010-012-RIZ004-006-007-MAZ004-011-015-281900- SOUTHERN NEW ENGLAND IN CT CITY SKY/WX TMP DP RH WIND PRES REMARKS BRADLEY INTL CLOUDY 58 17 20 SW6 30.00F HARTFORD CLOUDY 59 21 23 VRB5 30.02F DANBURY CLOUDY 59 22 24 VRB5 30.02F WTRBRY/OXFORD PTSUNNY 57 18 21 VRB5 30.01F BRIDGEPORT CLOUDY 55 25 31 S12 30.04F MERIDEN SUNNY 61 15 16 VRB6 30.01F NEW HAVEN CLOUDY 53 32 44 S13 30.04F CHESTER FAIR 55 23 28 S9G16 30.02F GROTON SUNNY 51 35 54 SE13 30.05F WILLIMANTIC SUNNY 61 13 15 SE3 30.01F IN RI CITY SKY/WX TMP DP RH WIND PRES REMARKS PROVIDENCE PTSUNNY 55 26 32 S17 30.04S BLOCK ISLAND MOSUNNY 50 29 44 S12 30.06F WESTERLY SUNNY 51 27 39 S12 30.06F IN MA CITY SKY/WX TMP DP RH WIND PRES REMARKS BOSTON MOSUNNY 51 29 42 E15 30.04S WORCESTER SUNNY 53 16 23 SW6 30.01F WESTFIELD CLOUDY 60 17 18 SE10 29.99F PROVINCETOWN SUNNY 50 24 36 E8 30.07F NANTUCKET SUNNY 51 31 46 SE13 30.07R $$ ANZ330-335-338-340-345-350-353-355-281900- COASTAL MARINE OBSERVATIONS STATION/POSITION TIME SKY/WX TEMP WIND PRES VSBY WAVE AIR SEA DIR/SP/G HT/PER (UTC) (F) (DEG/KT/KT) (MB) (MI) (FT/S) NY HARB ENTRANCE 1650 49 51 110/ 14/ 16 1017.3 3/ 7 20S FIRE ISLAND 1650 48 49 100/ 14/ 16 1017.7 3/ 4 GREAT SOUTH BAY 1715 49 58 130/ 12/ 16 N/A 23 SSW MONTAUK P 1750 47 47 130/ 10/ 12 1017.5 3/ 7 15 E BARNEGAT LI 1722 51 N/A 4/ 4 HUDSON CANYON 1650 50 49 1016.6 3/ 4 KINGS POINT 1700 54 54 1016.9 EXECUTION ROCKS NOT AVBL CENTRAL LI SOUND 1700 51 200/ 4/ 6 N/A 1 EASTERN LI SOUND 1700 49 48 140/ 10/ 12 N/A ROBBINS REEF 1706 50 170/ 17/ 18 1016.8 $$ >>>>>>>>>>>>>>>>>>>>>>>>>>>> KEY <<<<<<<<<<<<<<<<<<<<<<<<<<< > < > SKY/WX - SKY CONDITION/PRESENT WEATHER < > TMP - TEMPERATURE IN FAHRENHEIT < > DP - DEWPOINT IN FAHRENHEIT < > RH - RELATIVE HUMIDITY IN PERCENT < > WIND - DIRECTION AND SPEED IN MPH < > PRES - MEAN SEA LEVEL PRESSURE IN INCHES OF HG < > WCI - WIND CHILL INDEX < > VSB - VISIBILITY IN MILES < > HX - HEAT INDEX < > TC - TEMPERATURE IN CELSIUS < > VRB - VARIABLE WIND DIRECTION < > < >>>>>>>>>>>>>>>>>>>>>>>>>>>> KEY <<<<<<<<<<<<<<<<<<<<<<<<<<<

USA.gov is the U.S. government's official web portal to all federal, state and local government web resources and services.